Rush City, MN

1:02 PM CDT on September 21, 2017 (GMT -0500)
Rush City Regional

Weather History for KROS - November, 2012

Change the Weather History Date:

Thursday, November 15, 2012

  Actual Average (KCBG) Record (KCBG)
Temperature  
Mean Temperature 35 °F -  
Max Temperature 49 °F 38 °F 66 °F (2001)
Min Temperature 21 °F 21 °F -4 °F (2014)
Degree Days  
Heating Degree Days 30    
Moisture  
Dew Point 24 °F    
Average Humidity 63    
Maximum Humidity 92    
Minimum Humidity 35    
Precipitation  
Precipitation 0.00 in - - ()
Sea Level Pressure  
Sea Level Pressure 30.25 in    
Wind  
Wind Speed 5 mph (NW)    
Max Wind Speed 13 mph    
Max Gust Speed 17 mph    
Visibility 10 miles    
Events      
Averages and records for this station are not official NWS values.
T = Trace of Precipitation, MM = Missing Value Source: NWS Daily Summary

Daily Weather History Graph

Daily Weather History Graph

Search for Another Location

Airport or City:

Trip Planner

Search our weather history database for the weather conditions in past years. The results will help you decide how hot, cold, wet, or windy it might be!

Date:

Astronomy

Nov. 15, 2012 Rise Set
Actual Time 7:12 AM CST 4:40 PM CST
Civil Twilight 6:39 AM CST 5:12 PM CST
Nautical Twilight 6:03 AM CST 5:48 PM CST
Astronomical Twilight 5:28 AM CST 6:23 PM CST
Moon 9:12 AM CST (11/15) 6:28 PM CST (11/15)
Length of Visible Light 10h 32m
Length of Day
9h 28m
Waxing Crescent, 5% of the Moon is Illuminated
Nov 15
Waxing Crescent
Nov 20
First Quarter
Nov 28
Full
Dec 6
Last Quarter
Dec 13
New

Hourly Weather History & Observations

Time (CST) Temp. Windchill Dew Point Humidity Pressure Visibility Wind Dir Wind Speed Gust Speed Precip Events Conditions
12:15 AM 35.8 °F 30.9 °F 31.1 °F 83% 30.13 in 10.0 mi South 5.8 mph - N/A   Overcast
12:34 AM 35.1 °F 30.1 °F 30.6 °F 84% 30.13 in 10.0 mi South 5.8 mph - N/A   Overcast
12:54 AM 34.5 °F 29.4 °F 30.4 °F 85% 30.12 in 10.0 mi South 5.8 mph - N/A   Mostly Cloudy
1:15 AM 35.2 °F 30.3 °F 31.1 °F 85% 30.12 in 10.0 mi SSE 5.8 mph - N/A   Scattered Clouds
1:34 AM 36.1 °F 31.4 °F 31.5 °F 83% 30.12 in 10.0 mi SSE 5.8 mph - N/A   Scattered Clouds
1:54 AM 36.1 °F 31.4 °F 31.8 °F 84% 30.12 in 10.0 mi SSE 5.8 mph - N/A   Mostly Cloudy
2:15 AM 36.1 °F 32.3 °F 31.8 °F 84% 30.12 in 10.0 mi SSE 4.6 mph - N/A   Overcast
2:34 AM 36.5 °F 33.9 °F 32.0 °F 84% 30.12 in 10.0 mi SE 3.5 mph - N/A   Overcast
2:54 AM 36.9 °F 33.1 °F 32.0 °F 83% 30.11 in 10.0 mi SE 4.6 mph - N/A   Overcast
3:15 AM 37.4 °F - 32.0 °F 81% 30.12 in 10.0 mi Calm Calm - N/A   Overcast
3:34 AM 37.4 °F - 32.0 °F 81% 30.11 in 10.0 mi Calm Calm - N/A   Overcast
3:54 AM 36.1 °F - 31.8 °F 84% 30.11 in 10.0 mi Calm Calm - N/A   Overcast
4:15 AM 35.6 °F - 31.5 °F 85% 30.11 in 10.0 mi Calm Calm - N/A   Mostly Cloudy
4:34 AM 35.6 °F - 31.5 °F 85% 30.11 in 10.0 mi Calm Calm - N/A   Overcast
4:54 AM 35.1 °F - 31.3 °F 86% 30.12 in 10.0 mi Calm Calm - N/A   Overcast
5:14 AM 34.9 °F 29.9 °F 31.3 °F 87% 30.12 in 10.0 mi SSE 5.8 mph - N/A   Overcast
5:34 AM 36.0 °F 33.3 °F 32.0 °F 86% 30.12 in 10.0 mi South 3.5 mph - N/A   Overcast
6:14 AM 34.9 °F 32.0 °F 31.1 °F 86% 30.12 in 10.0 mi South 3.5 mph - N/A   Mostly Cloudy
6:35 AM 33.8 °F 29.6 °F 30.6 °F 88% 30.13 in 10.0 mi SSE 4.6 mph - N/A   Scattered Clouds
6:54 AM 32.9 °F 29.8 °F 29.8 °F 88% 30.13 in 10.0 mi South 3.5 mph - N/A   Scattered Clouds
7:14 AM 33.1 °F 30.0 °F 30.4 °F 90% 30.14 in 10.0 mi South 3.5 mph - N/A   Scattered Clouds
7:35 AM 32.9 °F - 30.0 °F 89% 30.15 in 10.0 mi Calm Calm - N/A   Clear
7:54 AM 31.8 °F - 29.3 °F 90% 30.16 in 10.0 mi Calm Calm - N/A   Clear
8:14 AM 33.1 °F - 31.1 °F 92% 30.17 in 10.0 mi Calm Calm - N/A   Clear
8:35 AM 37.0 °F - 32.4 °F 83% 30.18 in 10.0 mi Calm Calm - N/A   Clear
8:54 AM 39.4 °F - 32.0 °F 75% 30.18 in 10.0 mi Calm Calm - N/A   Scattered Clouds
9:14 AM 40.5 °F 37.3 °F 32.0 °F 72% 30.18 in 10.0 mi SW 4.6 mph - N/A   Clear
9:35 AM 42.3 °F 38.6 °F 32.5 °F 68% 30.20 in 10.0 mi West 5.8 mph - N/A   Clear
9:54 AM 43.0 °F 38.2 °F 33.1 °F 68% 30.20 in 10.0 mi WNW 8.1 mph - N/A   Clear
10:14 AM 43.7 °F 39.7 °F 32.7 °F 65% 30.21 in 10.0 mi NW 6.9 mph - N/A   Clear
10:34 AM 43.7 °F - 32.4 °F 64% 30.21 in 10.0 mi Calm Calm - N/A   Clear
10:55 AM 44.8 °F 41.6 °F 32.2 °F 61% 30.22 in 10.0 mi NNW 5.8 mph - N/A   Clear
11:14 AM 45.5 °F 44.2 °F 32.2 °F 60% 30.22 in 10.0 mi NNW 3.5 mph - N/A   Clear
11:34 AM 46.4 °F 43.5 °F 32.4 °F 58% 30.22 in 10.0 mi NW 5.8 mph - N/A   Clear
11:55 AM 47.5 °F - 32.0 °F 55% 30.23 in 10.0 mi NW 6.9 mph - N/A   Clear
12:14 PM 47.7 °F - 32.0 °F 55% 30.23 in 10.0 mi NW 8.1 mph - N/A   Clear
12:34 PM 48.9 °F - 31.8 °F 52% 30.23 in 10.0 mi NW 5.8 mph - N/A   Scattered Clouds
12:55 PM 49.3 °F - 31.3 °F 50% 30.23 in 10.0 mi NNW 9.2 mph - N/A   Scattered Clouds
1:14 PM 49.3 °F - 31.5 °F 50% 30.24 in 10.0 mi NW 8.1 mph - N/A   Scattered Clouds
1:34 PM 48.7 °F - 31.6 °F 52% 30.24 in 10.0 mi NW 8.1 mph - N/A   Clear
1:55 PM 48.4 °F - 30.4 °F 50% 30.24 in 10.0 mi NW 6.9 mph - N/A   Scattered Clouds
2:14 PM 48.2 °F - 28.0 °F 46% 30.25 in 10.0 mi NNW 8.1 mph - N/A   Scattered Clouds
2:34 PM 47.7 °F - 26.8 °F 44% 30.26 in 10.0 mi WNW 9.2 mph - N/A   Scattered Clouds
2:55 PM 46.4 °F 41.9 °F 26.2 °F 45% 30.27 in 10.0 mi NW 9.2 mph 16.1 mph N/A   Scattered Clouds
3:14 PM 45.5 °F 39.6 °F 23.7 °F 42% 30.28 in 10.0 mi WNW 12.7 mph 17.3 mph N/A   Scattered Clouds
3:34 PM 43.9 °F 38.3 °F 21.4 °F 41% 30.30 in 10.0 mi WNW 10.4 mph - N/A   Scattered Clouds
3:55 PM 42.1 °F 35.7 °F 19.2 °F 40% 30.31 in 10.0 mi WNW 11.5 mph - N/A   Scattered Clouds
4:14 PM 40.3 °F 36.3 °F 19.2 °F 43% 30.32 in 10.0 mi NW 5.8 mph - N/A   Scattered Clouds
4:34 PM 39.7 °F 34.9 °F 14.2 °F 35% 30.34 in 10.0 mi NNW 6.9 mph - N/A   Scattered Clouds
4:54 PM 37.9 °F 32.7 °F 12.0 °F 35% 30.34 in 10.0 mi NNW 6.9 mph - N/A   Scattered Clouds
5:14 PM 36.3 °F 31.6 °F 10.9 °F 35% 30.35 in 10.0 mi NNW 5.8 mph - N/A   Scattered Clouds
5:35 PM 34.9 °F 32.0 °F 10.8 °F 37% 30.36 in 10.0 mi NNW 3.5 mph - N/A   Scattered Clouds
5:54 PM 33.3 °F 28.9 °F 11.7 °F 41% 30.37 in 10.0 mi NW 4.6 mph - N/A   Scattered Clouds
6:14 PM 33.3 °F 28.9 °F 12.4 °F 42% 30.38 in 10.0 mi NNW 4.6 mph - N/A   Scattered Clouds
6:35 PM 32.9 °F 27.5 °F 9.1 °F 37% 30.38 in 10.0 mi NNW 5.8 mph - N/A   Scattered Clouds
6:54 PM 32.2 °F 26.7 °F 7.7 °F 36% 30.39 in 10.0 mi NNW 5.8 mph - N/A   Scattered Clouds
7:14 PM 32.0 °F 26.4 °F 7.5 °F 36% 30.39 in 10.0 mi NNW 5.8 mph - N/A   Scattered Clouds
7:35 PM 31.3 °F 26.6 °F 6.8 °F 36% 30.40 in 10.0 mi NNW 4.6 mph - N/A   Clear
7:54 PM 30.7 °F 26.0 °F 7.2 °F 37% 30.41 in 10.0 mi NNW 4.6 mph - N/A   Clear
8:14 PM 30.0 °F 25.2 °F 7.5 °F 39% 30.42 in 10.0 mi NNW 4.6 mph - N/A   Scattered Clouds
8:35 PM 29.3 °F 25.6 °F 7.7 °F 40% 30.42 in 10.0 mi NNW 3.5 mph - N/A   Clear
8:54 PM 27.1 °F 23.2 °F 9.1 °F 47% 30.43 in 10.0 mi NNW 3.5 mph - N/A   Clear
9:14 PM 26.6 °F - 8.8 °F 47% 30.43 in 10.0 mi Calm Calm - N/A   Clear
9:35 PM 24.1 °F - 9.0 °F 53% 30.44 in 10.0 mi Calm Calm - N/A   Clear
9:54 PM 23.0 °F - 10.4 °F 59% 30.45 in 10.0 mi Calm Calm - N/A   Clear
10:14 PM 23.2 °F - 10.8 °F 59% 30.45 in 10.0 mi Calm Calm - N/A   Clear
10:35 PM 25.2 °F 19.5 °F 10.9 °F 55% 30.45 in 10.0 mi NNW 4.6 mph - N/A   Clear
10:54 PM 24.8 °F 19.1 °F 11.5 °F 57% 30.46 in 10.0 mi North 4.6 mph - N/A   Clear
11:14 PM 24.6 °F 20.3 °F 11.8 °F 58% 30.46 in 10.0 mi North 3.5 mph - N/A   Clear
11:35 PM 21.2 °F - 11.8 °F 67% 30.46 in 10.0 mi Calm Calm - N/A   Clear
11:54 PM 22.5 °F - 12.4 °F 65% 30.46 in 10.0 mi Calm Calm - N/A   Clear